MERAH PUTIH 2

Last updated on Tue Sep 22 2026 00:03:16 GMT+0000 (Coordinated Universal Time)

1 58995U 24035A 26264.58275777 -.00000362 00000+0 00000+0 0 9998 2 58995 0.0101 130.4283 0001169 47.8545 144.9479 1.00272014 9555
UTC large
Height (km)
Speed (km/s)
/
Latitude / Longitude
Inclination (degrees)
Orbital Period (minutes)
Azimuth
Elevation
Range (km)
Doppler Factor

Next 0 passes for location: London (51.5072 / 0.1276)

No passes found over London.
MERAH PUTIH 2